Tracking 31027 objects as of 19-Jul-2025
HD Live streaming from Space Station
objects crossing your sky now

FENGYUN 1C DEB

Track FENGYUN 1C DEB now!
10-day predictions


NORAD ID: 35121
Int'l Code: 1999-025DKZ
Perigee: 770.3 km
Apogee: 999.6 km
Inclination: 98.3 °
Period: 102.5 minutes
Semi major axis: 7255 km
RCS: 0.0043 m2 (small)
Launch date: May 10, 1999
Source: People's Republic of China (PRC)
Launch site: Taiyaun Space Center, China (TSC)

Note: This is SATELLITE DEBRIS
Your satellite tracking list
SL-16 DEB
Track 1 satellite(s)




NASA's NSSDC Master Catalog

Two Line Element Set (TLE):
1 35121U 99025DKZ 25197.42601444  .00000230  00000-0  15005-3 0  9995
2 35121  98.3263  73.1120 0158015 160.6918 200.0331 14.04630643589956
Source of the keplerian elements: AFSPC